owner,sensor,date,latitude,longitude,relative_humidity,qcFlag 
DISL,ioos:station:DISL:KATA:1,2013-10-01T00:00:00Z,30.2583,-88.2131,68.38,1111122 
DISL,ioos:station:DISL:KATA:1,2013-10-01T00:30:00Z,30.2583,-88.2131,68.66,1111122 
DISL,ioos:station:DISL:KATA:1,2013-10-01T01:00:00Z,30.2583,-88.2131,64.72,1111122 
DISL,ioos:station:DISL:KATA:1,2013-10-01T01:30:00Z,30.2583,-88.2131,64.96,1111122 
DISL,ioos:station:DISL:KATA:1,2013-10-01T02:00:00Z,30.2583,-88.2131,65.64,1111122 
DISL,ioos:station:DISL:KATA:1,2013-10-01T02:30:00Z,30.2583,-88.2131,62.24,1111122 
DISL,ioos:station:DISL:KATA:1,2013-10-01T03:00:00Z,30.2583,-88.2131,62.3,1111122 
DISL,ioos:station:DISL:KATA:1,2013-10-01T03:30:00Z,30.2583,-88.2131,66.69,1111122 
DISL,ioos:station:DISL:KATA:1,2013-10-01T04:00:00Z,30.2583,-88.2131,68.21,1111122 
DISL,ioos:station:DISL:KATA:1,2013-10-01T04:30:00Z,30.2583,-88.2131,72.39,1111122 
DISL,ioos:station:DISL:KATA:1,2013-10-01T05:00:00Z,30.2583,-88.2131,74.81,1111122 
DISL,ioos:station:DISL:KATA:1,2013-10-01T05:30:00Z,30.2583,-88.2131,76.71,1111122 
DISL,ioos:station:DISL:KATA:1,2013-10-01T06:00:00Z,30.2583,-88.2131,69.58,1111122 
DISL,ioos:station:DISL:KATA:1,2013-10-01T06:30:00Z,30.2583,-88.2131,67.71,1111122 
DISL,ioos:station:DISL:KATA:1,2013-10-01T07:00:00Z,30.2583,-88.2131,70.69,1111122 
DISL,ioos:station:DISL:KATA:1,2013-10-01T07:30:00Z,30.2583,-88.2131,80.7,1111122 
DISL,ioos:station:DISL:KATA:1,2013-10-01T08:00:00Z,30.2583,-88.2131,81.2,1111122 
DISL,ioos:station:DISL:KATA:1,2013-10-01T08:30:00Z,30.2583,-88.2131,82.0,1111122 
DISL,ioos:station:DISL:KATA:1,2013-10-01T09:00:00Z,30.2583,-88.2131,83.2,1111122 
DISL,ioos:station:DISL:KATA:1,2013-10-01T09:30:00Z,30.2583,-88.2131,83.9,1111122 
DISL,ioos:station:DISL:KATA:1,2013-10-01T10:00:00Z,30.2583,-88.2131,85.3,1111122 
DISL,ioos:station:DISL:KATA:1,2013-10-01T10:30:00Z,30.2583,-88.2131,84.8,1111122 
DISL,ioos:station:DISL:KATA:1,2013-10-01T11:00:00Z,30.2583,-88.2131,85.4,1111122 
DISL,ioos:station:DISL:KATA:1,2013-10-01T11:30:00Z,30.2583,-88.2131,88.5,1111122 
DISL,ioos:station:DISL:KATA:1,2013-10-01T12:00:00Z,30.2583,-88.2131,89.2,1111122 
DISL,ioos:station:DISL:KATA:1,2013-10-01T12:30:00Z,30.2583,-88.2131,89.5,1111122 
DISL,ioos:station:DISL:KATA:1,2013-10-01T13:00:00Z,30.2583,-88.2131,89.0,1111122 
DISL,ioos:station:DISL:KATA:1,2013-10-01T13:30:00Z,30.2583,-88.2131,88.4,1111122 
DISL,ioos:station:DISL:KATA:1,2013-10-01T14:00:00Z,30.2583,-88.2131,83.8,1111122 
DISL,ioos:station:DISL:KATA:1,2013-10-01T14:30:00Z,30.2583,-88.2131,83.0,1111122 
DISL,ioos:station:DISL:KATA:1,2013-10-01T15:00:00Z,30.2583,-88.2131,81.8,1111122 
DISL,ioos:station:DISL:KATA:1,2013-10-01T15:30:00Z,30.2583,-88.2131,82.3,1111122 
DISL,ioos:station:DISL:KATA:1,2013-10-01T16:00:00Z,30.2583,-88.2131,81.4,1111122 
DISL,ioos:station:DISL:KATA:1,2013-10-01T16:30:00Z,30.2583,-88.2131,77.98,1111122 
DISL,ioos:station:DISL:KATA:1,2013-10-01T17:00:00Z,30.2583,-88.2131,76.28,1111122 
DISL,ioos:station:DISL:KATA:1,2013-10-01T17:30:00Z,30.2583,-88.2131,74.04,1111122 
DISL,ioos:station:DISL:KATA:1,2013-10-01T18:00:00Z,30.2583,-88.2131,79.06,1111122 
DISL,ioos:station:DISL:KATA:1,2013-10-01T18:30:00Z,30.2583,-88.2131,72.88,1111122 
DISL,ioos:station:DISL:KATA:1,2013-10-01T19:00:00Z,30.2583,-88.2131,73.32,1111122 
DISL,ioos:station:DISL:KATA:1,2013-10-01T19:30:00Z,30.2583,-88.2131,68.98,1111122 
DISL,ioos:station:DISL:KATA:1,2013-10-01T20:00:00Z,30.2583,-88.2131,62.96,1111122 
DISL,ioos:station:DISL:KATA:1,2013-10-01T20:30:00Z,30.2583,-88.2131,70.44,1111122 
DISL,ioos:station:DISL:KATA:1,2013-10-01T21:00:00Z,30.2583,-88.2131,67.58,1111122 
DISL,ioos:station:DISL:KATA:1,2013-10-01T21:30:00Z,30.2583,-88.2131,76.65,1111122 
DISL,ioos:station:DISL:KATA:1,2013-10-01T22:00:00Z,30.2583,-88.2131,72.92,1111122 
DISL,ioos:station:DISL:KATA:1,2013-10-01T22:30:00Z,30.2583,-88.2131,72.89,1111122 
DISL,ioos:station:DISL:KATA:1,2013-10-01T23:00:00Z,30.2583,-88.2131,67.49,1111122 
DISL,ioos:station:DISL:KATA:1,2013-10-01T23:30:00Z,30.2583,-88.2131,64.16,1111122 
DISL,ioos:station:DISL:KATA:1,2013-10-02T00:00:00Z,30.2583,-88.2131,70.18,1111122 
DISL,ioos:station:DISL:KATA:1,2013-10-02T00:30:00Z,30.2583,-88.2131,69.33,1111122 
DISL,ioos:station:DISL:KATA:1,2013-10-02T01:00:00Z,30.2583,-88.2131,71.3,1111122 
DISL,ioos:station:DISL:KATA:1,2013-10-02T01:30:00Z,30.2583,-88.2131,71.2,1111122 
DISL,ioos:station:DISL:KATA:1,2013-10-02T02:00:00Z,30.2583,-88.2131,77.31,1111122 
DISL,ioos:station:DISL:KATA:1,2013-10-02T02:30:00Z,30.2583,-88.2131,78.46,1111122 
DISL,ioos:station:DISL:KATA:1,2013-10-02T03:00:00Z,30.2583,-88.2131,77.99,1111122 
DISL,ioos:station:DISL:KATA:1,2013-10-02T03:30:00Z,30.2583,-88.2131,76.05,1111122 
DISL,ioos:station:DISL:KATA:1,2013-10-02T04:00:00Z,30.2583,-88.2131,77.07,1111122 
DISL,ioos:station:DISL:KATA:1,2013-10-02T04:30:00Z,30.2583,-88.2131,74.69,1111122 
DISL,ioos:station:DISL:KATA:1,2013-10-02T05:00:00Z,30.2583,-88.2131,76.49,1111122 
DISL,ioos:station:DISL:KATA:1,2013-10-02T05:30:00Z,30.2583,-88.2131,75.95,1111122 
DISL,ioos:station:DISL:KATA:1,2013-10-02T06:00:00Z,30.2583,-88.2131,76.7,1111122 
DISL,ioos:station:DISL:KATA:1,2013-10-02T06:30:00Z,30.2583,-88.2131,81.1,1111122 
DISL,ioos:station:DISL:KATA:1,2013-10-02T07:00:00Z,30.2583,-88.2131,83.3,1111122 
DISL,ioos:station:DISL:KATA:1,2013-10-02T07:30:00Z,30.2583,-88.2131,85.5,1111122 
DISL,ioos:station:DISL:KATA:1,2013-10-02T08:00:00Z,30.2583,-88.2131,86.4,1111122 
DISL,ioos:station:DISL:KATA:1,2013-10-02T08:30:00Z,30.2583,-88.2131,86.3,1111122 
DISL,ioos:station:DISL:KATA:1,2013-10-02T09:00:00Z,30.2583,-88.2131,84.8,1111122 
DISL,ioos:station:DISL:KATA:1,2013-10-02T09:30:00Z,30.2583,-88.2131,84.8,1111122 
DISL,ioos:station:DISL:KATA:1,2013-10-02T10:00:00Z,30.2583,-88.2131,86.1,1111122 
DISL,ioos:station:DISL:KATA:1,2013-10-02T10:30:00Z,30.2583,-88.2131,85.8,1111122 
DISL,ioos:station:DISL:KATA:1,2013-10-02T11:00:00Z,30.2583,-88.2131,82.0,1111122 
DISL,ioos:station:DISL:KATA:1,2013-10-02T11:30:00Z,30.2583,-88.2131,84.3,1111122 
DISL,ioos:station:DISL:KATA:1,2013-10-02T12:00:00Z,30.2583,-88.2131,86.1,1111122 
DISL,ioos:station:DISL:KATA:1,2013-10-02T12:30:00Z,30.2583,-88.2131,85.7,1111122 
DISL,ioos:station:DISL:KATA:1,2013-10-02T13:00:00Z,30.2583,-88.2131,89.3,1111122 
DISL,ioos:station:DISL:KATA:1,2013-10-02T13:30:00Z,30.2583,-88.2131,90.0,1111122 
DISL,ioos:station:DISL:KATA:1,2013-10-02T14:00:00Z,30.2583,-88.2131,91.6,1111122 
DISL,ioos:station:DISL:KATA:1,2013-10-02T14:30:00Z,30.2583,-88.2131,90.0,1111122 
DISL,ioos:station:DISL:KATA:1,2013-10-02T15:00:00Z,30.2583,-88.2131,87.1,1111122 
DISL,ioos:station:DISL:KATA:1,2013-10-02T15:30:00Z,30.2583,-88.2131,86.5,1111122 
DISL,ioos:station:DISL:KATA:1,2013-10-02T16:00:00Z,30.2583,-88.2131,81.7,1111122 
DISL,ioos:station:DISL:KATA:1,2013-10-02T16:30:00Z,30.2583,-88.2131,85.3,1111122 
DISL,ioos:station:DISL:KATA:1,2013-10-02T17:00:00Z,30.2583,-88.2131,84.7,1111122 
DISL,ioos:station:DISL:KATA:1,2013-10-02T17:30:00Z,30.2583,-88.2131,81.5,1111122 
DISL,ioos:station:DISL:KATA:1,2013-10-02T18:00:00Z,30.2583,-88.2131,78.92,1111122 
DISL,ioos:station:DISL:KATA:1,2013-10-02T18:30:00Z,30.2583,-88.2131,75.11,1111122 
DISL,ioos:station:DISL:KATA:1,2013-10-02T19:00:00Z,30.2583,-88.2131,76.59,1111122 
DISL,ioos:station:DISL:KATA:1,2013-10-02T19:30:00Z,30.2583,-88.2131,82.3,1111122 
DISL,ioos:station:DISL:KATA:1,2013-10-02T20:00:00Z,30.2583,-88.2131,83.3,1111122 
DISL,ioos:station:DISL:KATA:1,2013-10-02T20:30:00Z,30.2583,-88.2131,82.0,1111122 
DISL,ioos:station:DISL:KATA:1,2013-10-02T21:00:00Z,30.2583,-88.2131,80.1,1111122 
DISL,ioos:station:DISL:KATA:1,2013-10-02T21:30:00Z,30.2583,-88.2131,80.4,1111122 
DISL,ioos:station:DISL:KATA:1,2013-10-02T22:00:00Z,30.2583,-88.2131,82.0,1111122 
DISL,ioos:station:DISL:KATA:1,2013-10-02T22:30:00Z,30.2583,-88.2131,82.5,1111122 
DISL,ioos:station:DISL:KATA:1,2013-10-02T23:00:00Z,30.2583,-88.2131,82.2,1111122 
DISL,ioos:station:DISL:KATA:1,2013-10-02T23:30:00Z,30.2583,-88.2131,82.5,1111122 
DISL,ioos:station:DISL:KATA:1,2013-10-03T00:00:00Z,30.2583,-88.2131,82.1,1111122 
DISL,ioos:station:DISL:KATA:1,2013-10-03T00:30:00Z,30.2583,-88.2131,80.8,1111122 
DISL,ioos:station:DISL:KATA:1,2013-10-03T01:00:00Z,30.2583,-88.2131,81.2,1111122 
DISL,ioos:station:DISL:KATA:1,2013-10-03T01:30:00Z,30.2583,-88.2131,80.2,1111122 
DISL,ioos:station:DISL:KATA:1,2013-10-03T02:00:00Z,30.2583,-88.2131,78.88,1111122 
DISL,ioos:station:DISL:KATA:1,2013-10-03T02:30:00Z,30.2583,-88.2131,78.06,1111122 
DISL,ioos:station:DISL:KATA:1,2013-10-03T03:00:00Z,30.2583,-88.2131,76.06,1111122 
DISL,ioos:station:DISL:KATA:1,2013-10-03T03:30:00Z,30.2583,-88.2131,78.6,1111122 
DISL,ioos:station:DISL:KATA:1,2013-10-03T04:00:00Z,30.2583,-88.2131,81.2,1111122 
DISL,ioos:station:DISL:KATA:1,2013-10-03T04:30:00Z,30.2583,-88.2131,81.0,1111122 
DISL,ioos:station:DISL:KATA:1,2013-10-03T05:00:00Z,30.2583,-88.2131,80.8,1111122 
DISL,ioos:station:DISL:KATA:1,2013-10-03T05:30:00Z,30.2583,-88.2131,81.1,1111122 
DISL,ioos:station:DISL:KATA:1,2013-10-03T06:00:00Z,30.2583,-88.2131,80.0,1111122 
DISL,ioos:station:DISL:KATA:1,2013-10-03T06:30:00Z,30.2583,-88.2131,83.1,1111122 
DISL,ioos:station:DISL:KATA:1,2013-10-03T07:00:00Z,30.2583,-88.2131,86.2,1111122 
DISL,ioos:station:DISL:KATA:1,2013-10-03T07:30:00Z,30.2583,-88.2131,86.9,1111122 
DISL,ioos:station:DISL:KATA:1,2013-10-03T08:00:00Z,30.2583,-88.2131,80.6,1111122 
DISL,ioos:station:DISL:KATA:1,2013-10-03T08:30:00Z,30.2583,-88.2131,76.98,1111122 
DISL,ioos:station:DISL:KATA:1,2013-10-03T09:00:00Z,30.2583,-88.2131,76.46,1111122 
DISL,ioos:station:DISL:KATA:1,2013-10-03T09:30:00Z,30.2583,-88.2131,80.1,1111122 
DISL,ioos:station:DISL:KATA:1,2013-10-03T10:00:00Z,30.2583,-88.2131,78.7,1111122 
DISL,ioos:station:DISL:KATA:1,2013-10-03T10:30:00Z,30.2583,-88.2131,77.07,1111122 
DISL,ioos:station:DISL:KATA:1,2013-10-03T11:00:00Z,30.2583,-88.2131,75.71,1111122 
DISL,ioos:station:DISL:KATA:1,2013-10-03T11:30:00Z,30.2583,-88.2131,78.53,1111122 
DISL,ioos:station:DISL:KATA:1,2013-10-03T12:00:00Z,30.2583,-88.2131,85.9,1111122 
DISL,ioos:station:DISL:KATA:1,2013-10-03T12:30:00Z,30.2583,-88.2131,86.4,1111122 
DISL,ioos:station:DISL:KATA:1,2013-10-03T13:00:00Z,30.2583,-88.2131,86.2,1111122 
DISL,ioos:station:DISL:KATA:1,2013-10-03T13:30:00Z,30.2583,-88.2131,86.0,1111122 
DISL,ioos:station:DISL:KATA:1,2013-10-03T14:00:00Z,30.2583,-88.2131,86.4,1111122 
DISL,ioos:station:DISL:KATA:1,2013-10-03T14:30:00Z,30.2583,-88.2131,84.5,1111122 
DISL,ioos:station:DISL:KATA:1,2013-10-03T15:00:00Z,30.2583,-88.2131,78.22,1111122 
DISL,ioos:station:DISL:KATA:1,2013-10-03T17:30:00Z,30.2583,-88.2131,77.84,1111122 
DISL,ioos:station:DISL:KATA:1,2013-10-03T18:00:00Z,30.2583,-88.2131,78.76,1111122 
DISL,ioos:station:DISL:KATA:1,2013-10-03T18:30:00Z,30.2583,-88.2131,81.7,1111122 
DISL,ioos:station:DISL:KATA:1,2013-10-03T19:00:00Z,30.2583,-88.2131,81.2,1111122 
DISL,ioos:station:DISL:KATA:1,2013-10-03T19:30:00Z,30.2583,-88.2131,81.8,1111122 
DISL,ioos:station:DISL:KATA:1,2013-10-03T20:00:00Z,30.2583,-88.2131,84.0,1111122 
DISL,ioos:station:DISL:KATA:1,2013-10-03T20:30:00Z,30.2583,-88.2131,92.5,1111122 
DISL,ioos:station:DISL:KATA:1,2013-10-03T21:00:00Z,30.2583,-88.2131,87.9,1111122 
DISL,ioos:station:DISL:KATA:1,2013-10-03T21:30:00Z,30.2583,-88.2131,89.5,1111122 
DISL,ioos:station:DISL:KATA:1,2013-10-03T22:00:00Z,30.2583,-88.2131,89.4,1111122 
DISL,ioos:station:DISL:KATA:1,2013-10-03T22:30:00Z,30.2583,-88.2131,86.9,1111122 
DISL,ioos:station:DISL:KATA:1,2013-10-03T23:00:00Z,30.2583,-88.2131,86.3,1111122 
DISL,ioos:station:DISL:KATA:1,2013-10-03T23:30:00Z,30.2583,-88.2131,82.5,1111122 
DISL,ioos:station:DISL:KATA:1,2013-10-04T00:00:00Z,30.2583,-88.2131,84.2,1111122 
DISL,ioos:station:DISL:KATA:1,2013-10-04T00:30:00Z,30.2583,-88.2131,79.6,1111122 
DISL,ioos:station:DISL:KATA:1,2013-10-04T01:00:00Z,30.2583,-88.2131,76.6,1111122 
DISL,ioos:station:DISL:KATA:1,2013-10-04T01:30:00Z,30.2583,-88.2131,80.7,1111122 
DISL,ioos:station:DISL:KATA:1,2013-10-04T02:00:00Z,30.2583,-88.2131,81.1,1111122 
DISL,ioos:station:DISL:KATA:1,2013-10-04T02:30:00Z,30.2583,-88.2131,88.1,1111122 
DISL,ioos:station:DISL:KATA:1,2013-10-04T03:00:00Z,30.2583,-88.2131,88.3,1111122 
DISL,ioos:station:DISL:KATA:1,2013-10-04T03:30:00Z,30.2583,-88.2131,76.27,1111122 
DISL,ioos:station:DISL:KATA:1,2013-10-04T04:00:00Z,30.2583,-88.2131,81.9,1111122 
DISL,ioos:station:DISL:KATA:1,2013-10-04T04:30:00Z,30.2583,-88.2131,85.0,1111122 
DISL,ioos:station:DISL:KATA:1,2013-10-04T05:00:00Z,30.2583,-88.2131,83.8,1111122 
DISL,ioos:station:DISL:KATA:1,2013-10-04T05:30:00Z,30.2583,-88.2131,81.3,1111122 
DISL,ioos:station:DISL:KATA:1,2013-10-04T06:00:00Z,30.2583,-88.2131,83.3,1111122 
DISL,ioos:station:DISL:KATA:1,2013-10-04T06:30:00Z,30.2583,-88.2131,84.7,1111122 
DISL,ioos:station:DISL:KATA:1,2013-10-04T07:00:00Z,30.2583,-88.2131,84.2,1111122 
DISL,ioos:station:DISL:KATA:1,2013-10-04T07:30:00Z,30.2583,-88.2131,85.6,1111122 
DISL,ioos:station:DISL:KATA:1,2013-10-04T08:00:00Z,30.2583,-88.2131,85.3,1111122 
DISL,ioos:station:DISL:KATA:1,2013-10-04T08:30:00Z,30.2583,-88.2131,84.3,1111122 
DISL,ioos:station:DISL:KATA:1,2013-10-04T09:00:00Z,30.2583,-88.2131,83.8,1111122 
DISL,ioos:station:DISL:KATA:1,2013-10-04T09:30:00Z,30.2583,-88.2131,82.6,1111122 
DISL,ioos:station:DISL:KATA:1,2013-10-04T10:00:00Z,30.2583,-88.2131,84.0,1111122 
DISL,ioos:station:DISL:KATA:1,2013-10-04T10:30:00Z,30.2583,-88.2131,86.2,1111122 
DISL,ioos:station:DISL:KATA:1,2013-10-04T11:00:00Z,30.2583,-88.2131,85.6,1111122 
DISL,ioos:station:DISL:KATA:1,2013-10-04T11:30:00Z,30.2583,-88.2131,84.2,1111122 
DISL,ioos:station:DISL:KATA:1,2013-10-04T12:00:00Z,30.2583,-88.2131,84.7,1111122 
DISL,ioos:station:DISL:KATA:1,2013-10-04T12:30:00Z,30.2583,-88.2131,83.3,1111122 
DISL,ioos:station:DISL:KATA:1,2013-10-04T13:00:00Z,30.2583,-88.2131,82.0,1111122 
DISL,ioos:station:DISL:KATA:1,2013-10-04T13:30:00Z,30.2583,-88.2131,81.6,1111122 
DISL,ioos:station:DISL:KATA:1,2013-10-04T14:00:00Z,30.2583,-88.2131,80.8,1111122 
DISL,ioos:station:DISL:KATA:1,2013-10-04T14:30:00Z,30.2583,-88.2131,80.4,1111122 
DISL,ioos:station:DISL:KATA:1,2013-10-04T15:00:00Z,30.2583,-88.2131,81.2,1111122 
DISL,ioos:station:DISL:KATA:1,2013-10-04T15:30:00Z,30.2583,-88.2131,81.2,1111122 
DISL,ioos:station:DISL:KATA:1,2013-10-04T16:00:00Z,30.2583,-88.2131,79.84,1111122 
DISL,ioos:station:DISL:KATA:1,2013-10-04T16:30:00Z,30.2583,-88.2131,79.61,1111122 
DISL,ioos:station:DISL:KATA:1,2013-10-04T17:00:00Z,30.2583,-88.2131,80.4,1111122 
DISL,ioos:station:DISL:KATA:1,2013-10-04T17:30:00Z,30.2583,-88.2131,79.57,1111122 
DISL,ioos:station:DISL:KATA:1,2013-10-04T18:00:00Z,30.2583,-88.2131,78.62,1111122 
DISL,ioos:station:DISL:KATA:1,2013-10-04T18:30:00Z,30.2583,-88.2131,78.25,1111122 
DISL,ioos:station:DISL:KATA:1,2013-10-04T19:00:00Z,30.2583,-88.2131,79.06,1111122 
DISL,ioos:station:DISL:KATA:1,2013-10-04T19:30:00Z,30.2583,-88.2131,78.82,1111122 
DISL,ioos:station:DISL:KATA:1,2013-10-04T20:00:00Z,30.2583,-88.2131,79.33,1111122 
DISL,ioos:station:DISL:KATA:1,2013-10-04T20:30:00Z,30.2583,-88.2131,77.84,1111122 
DISL,ioos:station:DISL:KATA:1,2013-10-04T21:00:00Z,30.2583,-88.2131,80.0,1111122 
DISL,ioos:station:DISL:KATA:1,2013-10-04T21:30:00Z,30.2583,-88.2131,77.02,1111122 
DISL,ioos:station:DISL:KATA:1,2013-10-04T22:00:00Z,30.2583,-88.2131,78.93,1111122 
DISL,ioos:station:DISL:KATA:1,2013-10-04T22:30:00Z,30.2583,-88.2131,83.4,1111122 
DISL,ioos:station:DISL:KATA:1,2013-10-04T23:00:00Z,30.2583,-88.2131,82.7,1111122 
DISL,ioos:station:DISL:KATA:1,2013-10-04T23:30:00Z,30.2583,-88.2131,81.5,1111122 
DISL,ioos:station:DISL:KATA:1,2013-10-05T00:00:00Z,30.2583,-88.2131,80.3,1111122 
DISL,ioos:station:DISL:KATA:1,2013-10-05T00:30:00Z,30.2583,-88.2131,75.96,1111122 
DISL,ioos:station:DISL:KATA:1,2013-10-05T01:00:00Z,30.2583,-88.2131,77.87,1111122 
DISL,ioos:station:DISL:KATA:1,2013-10-05T01:30:00Z,30.2583,-88.2131,79.4,1111122 
DISL,ioos:station:DISL:KATA:1,2013-10-05T02:00:00Z,30.2583,-88.2131,81.6,1111122 
DISL,ioos:station:DISL:KATA:1,2013-10-05T02:30:00Z,30.2583,-88.2131,82.6,1111122 
DISL,ioos:station:DISL:KATA:1,2013-10-05T03:00:00Z,30.2583,-88.2131,82.5,1111122 
DISL,ioos:station:DISL:KATA:1,2013-10-05T03:30:00Z,30.2583,-88.2131,81.9,1111122 
DISL,ioos:station:DISL:KATA:1,2013-10-05T04:00:00Z,30.2583,-88.2131,80.9,1111122 
DISL,ioos:station:DISL:KATA:1,2013-10-05T04:30:00Z,30.2583,-88.2131,81.0,1111122 
DISL,ioos:station:DISL:KATA:1,2013-10-05T05:00:00Z,30.2583,-88.2131,82.5,1111122 
DISL,ioos:station:DISL:KATA:1,2013-10-05T05:30:00Z,30.2583,-88.2131,81.0,1111122 
DISL,ioos:station:DISL:KATA:1,2013-10-05T06:00:00Z,30.2583,-88.2131,83.5,1111122 
DISL,ioos:station:DISL:KATA:1,2013-10-05T06:30:00Z,30.2583,-88.2131,78.74,1111122 
DISL,ioos:station:DISL:KATA:1,2013-10-05T07:00:00Z,30.2583,-88.2131,79.79,1111122 
DISL,ioos:station:DISL:KATA:1,2013-10-05T07:30:00Z,30.2583,-88.2131,80.8,1111122 
DISL,ioos:station:DISL:KATA:1,2013-10-05T08:00:00Z,30.2583,-88.2131,81.9,1111122 
DISL,ioos:station:DISL:KATA:1,2013-10-05T08:30:00Z,30.2583,-88.2131,78.02,1111122 
DISL,ioos:station:DISL:KATA:1,2013-10-05T09:00:00Z,30.2583,-88.2131,81.1,1111122 
DISL,ioos:station:DISL:KATA:1,2013-10-05T09:30:00Z,30.2583,-88.2131,78.23,1111122 
DISL,ioos:station:DISL:KATA:1,2013-10-05T10:00:00Z,30.2583,-88.2131,81.3,1111122 
DISL,ioos:station:DISL:KATA:1,2013-10-05T10:30:00Z,30.2583,-88.2131,80.8,1111122 
DISL,ioos:station:DISL:KATA:1,2013-10-05T11:00:00Z,30.2583,-88.2131,80.7,1111122 
DISL,ioos:station:DISL:KATA:1,2013-10-05T11:30:00Z,30.2583,-88.2131,81.8,1111122 
DISL,ioos:station:DISL:KATA:1,2013-10-05T12:00:00Z,30.2583,-88.2131,83.6,1111122 
DISL,ioos:station:DISL:KATA:1,2013-10-05T12:30:00Z,30.2583,-88.2131,83.0,1111122 
DISL,ioos:station:DISL:KATA:1,2013-10-05T13:00:00Z,30.2583,-88.2131,82.2,1111122 
DISL,ioos:station:DISL:KATA:1,2013-10-05T13:30:00Z,30.2583,-88.2131,78.93,1111122 
DISL,ioos:station:DISL:KATA:1,2013-10-05T14:00:00Z,30.2583,-88.2131,76.55,1111122 
DISL,ioos:station:DISL:KATA:1,2013-10-05T14:30:00Z,30.2583,-88.2131,76.14,1111122 
DISL,ioos:station:DISL:KATA:1,2013-10-05T15:00:00Z,30.2583,-88.2131,77.43,1111122 
DISL,ioos:station:DISL:KATA:1,2013-10-05T15:30:00Z,30.2583,-88.2131,78.35,1111122 
DISL,ioos:station:DISL:KATA:1,2013-10-05T16:00:00Z,30.2583,-88.2131,78.66,1111122 
DISL,ioos:station:DISL:KATA:1,2013-10-05T16:30:00Z,30.2583,-88.2131,74.21,1111122 
DISL,ioos:station:DISL:KATA:1,2013-10-05T17:00:00Z,30.2583,-88.2131,78.69,1111122 
DISL,ioos:station:DISL:KATA:1,2013-10-05T17:30:00Z,30.2583,-88.2131,81.0,1111122 
DISL,ioos:station:DISL:KATA:1,2013-10-05T18:00:00Z,30.2583,-88.2131,77.77,1111122 
DISL,ioos:station:DISL:KATA:1,2013-10-05T18:30:00Z,30.2583,-88.2131,76.24,1111122 
DISL,ioos:station:DISL:KATA:1,2013-10-05T19:00:00Z,30.2583,-88.2131,78.25,1111122 
DISL,ioos:station:DISL:KATA:1,2013-10-05T19:30:00Z,30.2583,-88.2131,75.9,1111122 
DISL,ioos:station:DISL:KATA:1,2013-10-05T20:00:00Z,30.2583,-88.2131,77.98,1111122 
DISL,ioos:station:DISL:KATA:1,2013-10-05T20:30:00Z,30.2583,-88.2131,76.21,1111122 
DISL,ioos:station:DISL:KATA:1,2013-10-05T21:00:00Z,30.2583,-88.2131,78.79,1111122 
DISL,ioos:station:DISL:KATA:1,2013-10-05T21:30:00Z,30.2583,-88.2131,74.85,1111122 
DISL,ioos:station:DISL:KATA:1,2013-10-05T22:00:00Z,30.2583,-88.2131,76.14,1111122 
DISL,ioos:station:DISL:KATA:1,2013-10-05T22:30:00Z,30.2583,-88.2131,77.33,1111122 
DISL,ioos:station:DISL:KATA:1,2013-10-05T23:00:00Z,30.2583,-88.2131,78.42,1111122 
DISL,ioos:station:DISL:KATA:1,2013-10-05T23:30:00Z,30.2583,-88.2131,73.94,1111122 
DISL,ioos:station:DISL:KATA:1,2013-10-06T00:00:00Z,30.2583,-88.2131,73.2,1111122 
DISL,ioos:station:DISL:KATA:1,2013-10-06T00:30:00Z,30.2583,-88.2131,78.84,1111122 
DISL,ioos:station:DISL:KATA:1,2013-10-06T01:00:00Z,30.2583,-88.2131,83.7,1111122 
DISL,ioos:station:DISL:KATA:1,2013-10-06T01:30:00Z,30.2583,-88.2131,79.25,1111122 
DISL,ioos:station:DISL:KATA:1,2013-10-06T02:00:00Z,30.2583,-88.2131,76.97,1111122 
DISL,ioos:station:DISL:KATA:1,2013-10-06T02:30:00Z,30.2583,-88.2131,77.65,1111122 
DISL,ioos:station:DISL:KATA:1,2013-10-06T03:00:00Z,30.2583,-88.2131,78.03,1111122 
DISL,ioos:station:DISL:KATA:1,2013-10-06T03:30:00Z,30.2583,-88.2131,75.34,1111122 
DISL,ioos:station:DISL:KATA:1,2013-10-06T04:00:00Z,30.2583,-88.2131,73.71,1111122 
DISL,ioos:station:DISL:KATA:1,2013-10-06T04:30:00Z,30.2583,-88.2131,76.36,1111122 
DISL,ioos:station:DISL:KATA:1,2013-10-06T05:00:00Z,30.2583,-88.2131,75.17,1111122 
DISL,ioos:station:DISL:KATA:1,2013-10-06T05:30:00Z,30.2583,-88.2131,75.61,1111122 
DISL,ioos:station:DISL:KATA:1,2013-10-06T06:00:00Z,30.2583,-88.2131,75.78,1111122 
DISL,ioos:station:DISL:KATA:1,2013-10-06T06:30:00Z,30.2583,-88.2131,76.56,1111122 
DISL,ioos:station:DISL:KATA:1,2013-10-06T07:00:00Z,30.2583,-88.2131,76.63,1111122 
DISL,ioos:station:DISL:KATA:1,2013-10-06T07:30:00Z,30.2583,-88.2131,76.63,1111122 
DISL,ioos:station:DISL:KATA:1,2013-10-06T08:00:00Z,30.2583,-88.2131,76.15,1111122 
DISL,ioos:station:DISL:KATA:1,2013-10-06T08:30:00Z,30.2583,-88.2131,76.87,1111122 
DISL,ioos:station:DISL:KATA:1,2013-10-06T09:00:00Z,30.2583,-88.2131,76.49,1111122 
DISL,ioos:station:DISL:KATA:1,2013-10-06T09:30:00Z,30.2583,-88.2131,79.63,1111122 
DISL,ioos:station:DISL:KATA:1,2013-10-06T10:00:00Z,30.2583,-88.2131,75.56,1111122 
DISL,ioos:station:DISL:KATA:1,2013-10-06T10:30:00Z,30.2583,-88.2131,78.44,1111122 
DISL,ioos:station:DISL:KATA:1,2013-10-06T11:00:00Z,30.2583,-88.2131,78.37,1111122 
DISL,ioos:station:DISL:KATA:1,2013-10-06T11:30:00Z,30.2583,-88.2131,79.86,1111122 
DISL,ioos:station:DISL:KATA:1,2013-10-06T12:00:00Z,30.2583,-88.2131,77.96,1111122 
DISL,ioos:station:DISL:KATA:1,2013-10-06T12:30:00Z,30.2583,-88.2131,87.4,1111122 
DISL,ioos:station:DISL:KATA:1,2013-10-06T13:00:00Z,30.2583,-88.2131,84.5,1111122 
DISL,ioos:station:DISL:KATA:1,2013-10-06T13:30:00Z,30.2583,-88.2131,82.0,1111122 
DISL,ioos:station:DISL:KATA:1,2013-10-06T14:00:00Z,30.2583,-88.2131,89.9,1111122 
DISL,ioos:station:DISL:KATA:1,2013-10-06T14:30:00Z,30.2583,-88.2131,82.4,1111122 
DISL,ioos:station:DISL:KATA:1,2013-10-06T15:00:00Z,30.2583,-88.2131,87.2,1111122 
DISL,ioos:station:DISL:KATA:1,2013-10-06T15:30:00Z,30.2583,-88.2131,78.99,1111122 
DISL,ioos:station:DISL:KATA:1,2013-10-06T16:00:00Z,30.2583,-88.2131,80.6,1111122 
DISL,ioos:station:DISL:KATA:1,2013-10-06T16:30:00Z,30.2583,-88.2131,91.6,1111122 
DISL,ioos:station:DISL:KATA:1,2013-10-06T17:00:00Z,30.2583,-88.2131,89.9,1111122 
DISL,ioos:station:DISL:KATA:1,2013-10-06T17:30:00Z,30.2583,-88.2131,88.6,1111122 
DISL,ioos:station:DISL:KATA:1,2013-10-06T18:00:00Z,30.2583,-88.2131,89.1,1111122 
DISL,ioos:station:DISL:KATA:1,2013-10-06T18:30:00Z,30.2583,-88.2131,87.6,1111122 
DISL,ioos:station:DISL:KATA:1,2013-10-06T19:00:00Z,30.2583,-88.2131,88.4,1111122 
DISL,ioos:station:DISL:KATA:1,2013-10-06T19:30:00Z,30.2583,-88.2131,89.6,1111122 
DISL,ioos:station:DISL:KATA:1,2013-10-06T20:00:00Z,30.2583,-88.2131,89.0,1111122 
DISL,ioos:station:DISL:KATA:1,2013-10-06T20:30:00Z,30.2583,-88.2131,88.2,1111122 
DISL,ioos:station:DISL:KATA:1,2013-10-06T21:00:00Z,30.2583,-88.2131,86.6,1111122 
DISL,ioos:station:DISL:KATA:1,2013-10-06T21:30:00Z,30.2583,-88.2131,88.5,1111122 
DISL,ioos:station:DISL:KATA:1,2013-10-06T22:00:00Z,30.2583,-88.2131,84.0,1111122 
DISL,ioos:station:DISL:KATA:1,2013-10-06T22:30:00Z,30.2583,-88.2131,81.3,1111122 
DISL,ioos:station:DISL:KATA:1,2013-10-06T23:00:00Z,30.2583,-88.2131,84.1,1111122 
DISL,ioos:station:DISL:KATA:1,2013-10-06T23:30:00Z,30.2583,-88.2131,88.0,1111122 
DISL,ioos:station:DISL:KATA:1,2013-10-07T00:00:00Z,30.2583,-88.2131,89.0,1111122 
DISL,ioos:station:DISL:KATA:1,2013-10-07T00:30:00Z,30.2583,-88.2131,89.5,1111122 
DISL,ioos:station:DISL:KATA:1,2013-10-07T01:00:00Z,30.2583,-88.2131,88.1,1111122 
DISL,ioos:station:DISL:KATA:1,2013-10-07T01:30:00Z,30.2583,-88.2131,87.2,1111122 
DISL,ioos:station:DISL:KATA:1,2013-10-07T02:00:00Z,30.2583,-88.2131,87.7,1111122 
DISL,ioos:station:DISL:KATA:1,2013-10-07T02:30:00Z,30.2583,-88.2131,90.4,1111122 